Tracking 28091 objects as of 30-Sep-2023
HD Live streaming from Space Station
objects crossing your sky now

STARLINK-30221

Track STARLINK-30221 now!
10-day predictions
STARLINK-30221 is classified as:


NORAD ID: 57418
Int'l Code: 2023-102Q
Perigee: 565.2 km
Apogee: 567.3 km
Inclination: 43.0 °
Period: 95.8 minutes
Semi major axis: 6937 km
RCS: Unknown
Launch date: July 20, 2023
Source: United States (US)
Launch site: AIR FORCE WESTERN TEST RANGE (AFWTR)
Your satellite tracking list
Your tracking list is empty




NASA's NSSDC Master Catalog

Two Line Element Set (TLE):
1 57418U 23102Q   23273.44505911  .00000858  00000-0  78614-4 0  9990
2 57418  43.0025  51.3310 0001516 279.7655  80.3017 15.02536339 12175
Source of the keplerian elements: AFSPC